HORIZONS-3E

Last updated on Tue Jul 01 2025 00:02:47 GMT+0000 (Coordinated Universal Time)

1 43633U 18074B 25181.50600275 -.00000031 00000+0 00000+0 0 9994 2 43633 0.0581 201.5018 0000966 88.0257 340.4390 1.00271254 24813
UTC large
Height (km)
Speed (km/s)
/
Latitude / Longitude
Inclination (degrees)
Orbital Period (minutes)
Azimuth
Elevation
Range (km)
Doppler Factor

Next 0 passes for location: London (51.5072 / 0.1276)

Sorry there are no passes over London.